Regional Weather Roundup
Issued by NWS

Home | Current Version | Previous Version | Text Only | Print | Product List | Glossary Off
Versions: 1 2 3 4 5 6 7 8 9 10 11 12 13 14 15 16 17 18 19 20 21 22 23 24 25 26 27 28 29 30 31 32 33 34 35 36 37 38 39 40 41 42 43 44 45 46 47 48 49 50

000
ASUS43 KDMX 240307
RWRIA

WEATHER ROUNDUP FOR IOWA
NATIONAL WEATHER SERVICE DES MOINES IA
1000 PM CDT SAT MAY 23 2015

NOTE: "FAIR" INDICATES FEW OR NO CLOUDS BELOW 12,000 FEET WITH NO
SIGNIFICANT WEATHER AND/OR OBSTRUCTIONS TO VISIBILITY.

* - THESE STATIONS ARE NOT NWS STATIONS...THUS NOT UNDER NWS
QUALITY CONTROL.  THEY ALSO DO NOT REPORT WEATHER SUCH
AS PRECIPITATION OR FOG.

IAZ001>003-012>014-020>022-031>034-043>046-240400-
   NORTHWEST IOWA

CITY           SKY/WX    TMP DP  RH WIND       PRES   REMARKS
CARROLL *      CLOUDY    64  57  77 SE5       30.09R
CHEROKEE *     CLOUDY    63  57  82 CALM      30.09R
DENISON *      CLOUDY    63  61  94 CALM      30.05F
LE MARS *      CLOUDY    64  55  72 CALM      30.09R
ORANGE CITY *  CLOUDY    61  55  82 CALM      30.09R
SHELDON *      CLOUDY    63  54  72 CALM      30.09R
SIOUX CITY     CLOUDY    63  55  75 SE5       30.07R
SPENCER        CLOUDY    63  55  75 SE5       30.10
STORM LAKE *   CLOUDY    63  55  77 E3        30.09F
$$

IAZ055>058-069>071-079>083-090>094-240400-
   SOUTHWEST IOWA

CITY           SKY/WX    TMP DP  RH WIND       PRES   REMARKS
ATLANTIC *     CLOUDY    64  61  88 SE10      30.07S
AUDUBON *      CLOUDY    64  57  77 SE6       30.09R
CLARINDA *     CLOUDY    63  63 100 SE14G23   30.05S
COUNCIL BLFS * LGT RAIN  61  61 100 E8        30.05S
CRESTON *      CLOUDY    64  57  77 SE8       30.10S
HARLAN  *      CLOUDY    64  64 100 SE7       30.10R
LAMONI         CLOUDY    65  57  75 CALM      30.10S
RED OAK *      CLOUDY    63  61  94 SE8       30.04F
SHENANDOAH *   CLOUDY    63  63 100 E14       30.01F
$$

IAZ047>049-059>061-072>074-084-240400-
   CENTRAL IOWA

CITY           SKY/WX    TMP DP  RH WIND       PRES   REMARKS
AMES           CLOUDY    67  52  58 SE8       30.10S
ANKENY *       CLOUDY    68  54  60 SE8       30.10S
CHARITON *     CLOUDY    66  54  63 SE7       30.11S
DES MOINES     CLOUDY    69  53  56 SE7       30.10S
GRINNELL*      CLOUDY    66  50  55 SE6       30.13F
KNOXVILLE *    CLOUDY    66  54  63 E5        30.10S
MARSHALLTOWN   CLOUDY    68  51  54 S7        30.12R
PELLA *        CLOUDY    68  57  68 SE5       30.12S
PERRY *        CLOUDY    66  55  68 SE8       30.08F
$$

IAZ004>006-015-016-023>025-035-036-240400-
   NORTH CENTRAL IOWA

CITY           SKY/WX    TMP DP  RH WIND       PRES   REMARKS
ALGONA *       CLOUDY    64  57  77 CALM      30.11S
CLARION *      CLOUDY    66  54  63 SE8       30.10S
ESTHERVILLE    CLOUDY    63  52  67 SE8       30.10R
FORT DODGE *   CLOUDY    63  54  72 E3        30.10F
MASON CITY     CLOUDY    66  51  58 CALM      30.12S
FOREST CITY *  CLOUDY    61  55  82 CALM      30.11S
IOWA FALLS *   CLOUDY    66  54  63 SE6       30.12S
$$

IAZ007>011-017>019-026>030-037>042-050>054-066-240400-
   NORTHEAST IOWA

CITY           SKY/WX    TMP DP  RH WIND       PRES   REMARKS
CEDAR RAPIDS   MOCLDY    66  49  54 S3        30.14R
CHARLES CITY * CLOUDY    68  46  45 SE7       30.13S
CLINTON *      PTCLDY    66  48  52 S5        30.19R
DECORAH *      PTCLDY    66  48  52 SE5       30.14S
DUBUQUE        PTCLDY    64  50  60 SE8       30.17R
MONTICELLO *   CLEAR     64  54  68 SE3       30.15R
OELWEIN *      MOCLDY    66  52  59 S7        30.15R
WATERLOO       CLOUDY    68  49  50 S6        30.13R
$$

IAZ064-065-067-068-078-240400-
   EAST CENTRAL IOWA

CITY           SKY/WX    TMP DP  RH WIND       PRES   REMARKS
DAVENPORT      MOCLDY    67  45  45 S6        30.16R
IOWA CITY      MOCLDY    65  51  60 CALM      30.16R
MT. PLEASANT * CLOUDY    66  52  59 E6        30.14S
MUSCATINE *    CLEAR     66  52  59 CALM      30.15S
QUAD CITIES    MOCLDY    61  50  67 SE5       30.15R
$$

IAZ062-063-075>077-085>089-095>099-240400-
   SOUTHEAST IOWA

CITY           SKY/WX    TMP DP  RH WIND       PRES   REMARKS
BURLINGTON     CLOUDY    68  50  52 SE6       30.14S
FAIRFIELD *    CLOUDY    66  52  59 E6        30.13F
FORT MADISON * MOCLDY    68  54  60 E6        30.14F
KEOKUK *       PTCLDY    66  54  63 E5        30.13F
OSKALOOSA *    CLOUDY    66  52  59 SE7       30.12F
CENTERVILLE *  PTCLDY    63  63 100 E5        30.12S
OTTUMWA        CLOUDY    67  53  61 E7        30.12S
WASHINGTON *   MOCLDY    66  48  52 SE7       30.15S
$$

ABBREVIATIONS USED IN REMARKS
   TC - TEMPERATURES IN CELSIUS
  WCI - WIND CHILL INDEX
   HX - HEAT INDEX
  VSB - VISIBILITY
$$




USA.gov is the U.S. government's official web portal to all federal, state and local government web resources and services.